Location: Bellevue
(42.7942°N, 73.9696°W)
Time: 13:09:44
(UTC+00:00)

Daily predictions for brighter satellites

Satellite Brightness Start Highest point End
(mag) Time Altitude Azimuth Time Altitude Azimuth Time Altitude Azimuth
Cosmos 1933 Rocket 3.6 23:04:09 10° S 23:08:28 58° E 23:12:46 10° NNE
STARLINK-1046 3.7 23:06:01 10° WSW 23:10:10 81° NW 23:14:19 10° NE
Cosmos 2227 Rocket 4.0 23:09:19 10° NNE 23:11:32 12° NE 23:13:45 10° ENE
Envisat 4.2 23:07:05 10° S 23:11:59 49° W 23:16:56 10° NNW
SKYMED 2 3.7 23:08:58 10° NNE 23:13:20 85° WNW 23:17:41 10° SSW
Meteor 1-20 Rocket 4.3 23:09:51 10° S 23:15:09 53° E 23:20:34 10° NNE
STARLINK-1039 3.8 23:11:06 10° WSW 23:15:14 74° NW 23:19:23 10° NE
STARLINK-1045 3.9 23:16:01 10° WSW 23:20:09 69° NNW 23:24:18 10° NE
STARLINK-1050 4.0 23:21:07 10° WSW 23:25:13 62° NNW 23:29:20 10° NE
Cosmos 1763 Rocket 3.7 23:20:44 10° S 23:25:44 48° ESE 23:30:48 10° NNE
Cosmos 841 Rocket 4.4 23:22:21 10° SSE 23:26:35 26° E 23:30:51 10° NE
Lacrosse 5 rocket 3.4 23:23:32 10° NNW 23:26:41 18° NNE 23:29:53 10° ENE
GPS 2-04 Rocket1 4.2 23:24:06 10° WSW 23:27:46 30° S 23:31:27 10° SE
Okean 1 3.7 23:25:43 10° N 23:29:29 39° ENE 23:33:12 10° SSE
Cosmos 489 Rocket 4.5 23:23:29 10° S 23:29:46 69° ESE 23:36:03 10° NNE
Cosmos 1898 Rocket 3.6 23:24:58 10° NNW 23:30:05 56° ENE 23:35:11 10° SE
STARLINK-1055 4.1 23:26:07 10° WSW 23:30:11 57° NNW 23:34:18 10° NE
STARLINK-1022 4.3 23:31:07 10° WSW 23:35:10 53° NNW 23:39:14 10° NE
CRYOSAT 2 4.3 23:30:50 10° S 23:35:44 82° E 23:40:40 10° N
Cosmos 220 Rocket 4.0 23:31:44 10° S 23:35:58 57° ESE 23:40:09 10° NNE
Cosmos 1602 3.9 23:32:37 10° SSE 23:36:21 49° E 23:40:05 10° NNE
STARLINK-1042 4.4 23:36:09 10° WSW 23:40:11 50° NNW 23:44:13 10° NE
Cosmos 2208 Rocket 4.5 23:36:00 10° S 23:41:00 40° ESE 23:46:00 10° NE
STARLINK-80 4.3 23:38:09 10° NW 23:41:41 34° NNE 23:43:57 18° E
Meteor 1-18 Rocket 4.3 23:36:02 10° N 23:41:54 65° ENE 23:47:38 10° SSE
Cosmos 2219 4.2 23:37:28 10° N 23:42:20 27° NE 23:45:50 16° ESE
Nadezhda 4 Rocket 4.3 23:38:11 10° N 23:44:15 46° ENE 23:50:18 10° SSE
STARLINK-1056 4.5 23:41:11 10° WSW 23:45:11 46° NNW 23:49:05 11° NE
OE (NEXTSAT) 4.4 23:41:58 10° WNW 23:45:27 75° SSW 23:47:54 18° ESE
Meteor 2-11 Rocket 4.4 23:40:17 10° S 23:46:19 73° E 23:52:24 10° NNE
NOSS 2 (A) 3.8 23:44:05 10° NNW 23:46:31 75° NE 23:47:54 21° SE
Cosmos 540 Rocket 3.9 23:43:49 10° SSE 23:48:28 36° ESE 23:53:09 10° NE
Cosmos 858 Rocket 4.5 23:44:19 10° NNW 23:49:29 61° ENE 23:54:36 10° SSE
Cosmos 2369 Rocket 4.4 23:45:48 10° WSW 23:50:20 24° NW 23:54:55 10° N
Cosmos 1464 Rocket 4.0 23:44:13 10° S 23:50:34 80° E 23:56:58 10° N
APEX 4.3 23:46:31 10° S 23:51:13 49° ESE 23:57:05 10° NE
CZ-2D R/B 3.7 23:48:05 10° S 23:51:56 64° W 23:55:49 10° NNW
Okean 1-7 2.9 23:47:57 10° N 23:52:19 84° E 23:56:41 10° S
Meteor 2-4 Rocket 4.2 23:47:45 10° N 23:53:22 42° ENE 23:58:57 10° SE
Cosmos 1570 Rocket 4.0 23:48:30 10° S 23:53:39 62° ESE 23:58:52 10° NNE
ARGOS 3.8 23:50:07 10° SE 23:54:57 34° ENE 23:59:48 10° N
Cosmos 1939 Rocket 3.6 23:51:14 10° S 23:55:18 58° W 23:59:24 10° NNW
